User: anonymous   Login
Location: Unspecified
(43.4354°N, 0.0000°E)
Time: 18:43:23
(UTC+00:00)
Language:

EO-88 - Orbit

View from above orbital plane
View from above orbital plane
View from above satellite
View from above satellite

Ground track
Ground track

The orbit data is extracted from the following two-line orbital elements,

1 42017U 17008BX  19236.86245130 +.00000777 +00000-0 +33368-4 0  9998
2 42017 097.3985 303.2522 0004635 300.4188 059.6591 15.25648700140161
Epoch (UTC): 24 August 2019 20:41:55
Eccentricity: 0.0004635
inclination: 97.3985°
perigee height: 485 km
apogee height: 492 km
right ascension of ascending node: 303.2522°
argument of perigee: 300.4188°
revolutions per day: 15.25648700
mean anomaly at epoch: 59.6591°
orbit number at epoch: 14016

The dashed part of the orbit path shows where the satellite is in the earth's shadow,  

DLR